アトラス彗星

C/2021 G2 ( ATLAS )

English version
Home page
Updated on October 15, 2021

---------------------------------------------------------------------

・ プロフィール

発見日 2021年4月11日
発見光度 19.3等
発見者 Asteroid Terrestrial-Impact Last Alert System (ATLAS) search program

・ 写真集

・ 軌道要素

Epoch 2024 Sept. 7.0 TT = JDT 2460560.5                                         
T 2024 Sept.  9.07772 TT                                Rudenko                 
q   4.9818992            (2000.0)            P               Q                  
z  -0.0000926      Peri.  343.27875     -0.84713288     +0.20052250             
 +/-0.0000171      Node   221.09514     -0.36000255     -0.89773074             
e   1.0004614      Incl.   48.47331     -0.39085041     +0.39226299             
From 91 observations 2020 Nov. 3-2021 Sept. 29, mean residual 0".5.             

・ 星図

・ 光度変化

        m1 = 4.0 + 5 logΔ + 10.0 log r

---------------------------------------------------------------------

軌道要素はM.P.E.C. 2021-T206に掲載されたものです。
星図はステラナビゲータ Ver.10 (アストロアーツ) で作成したものです。
光度グラフはComet for Windowsで作成したものです。

---------------------------------------------------------------------

Copyright(C) Seiichi Yoshida (comet@aerith.net). All rights reserved.